Total_Precipitation_Accumulation
0.02 0.02 0.02 0.02 0.02 0.01 0.01 0.01 0.00 0.00 0.00 0.00 0.00 0.00 0.00 0.02 0.00 0.01 0.01 0.00 0.00 0.00 0.00 0.03 0.04 0.02 0.01 0.02 0.02 0.01 0.00 0.01 0.01 0.01 0.02 0.01 0.01 0.01 0.01 0.00 0.01 0.01 0.00 0.00 0.00 0.00 0.02 0.05 0.06 0.06 0.07 0.09 0.13 0.18 0.22 0.30 0.35 0.29 0.19 0.15 0.20 0.22 0.20 0.19 0.18 0.18 0.23 0.29 0.29 0.25 0.20 0.14 0.10 0.09 0.09 0.11 0.12 0.12 0.13 0.17 0.22 0.30 0.41 0.48 0.57
0.03 0.03 0.03 0.02 0.02 0.01 0.01 0.00 0.00 0.00 0.00 0.00 0.00 0.00 0.01 0.01 0.01 0.00 0.01 0.01 0.00 0.00 0.00 0.00 0.01 0.01 0.02 0.01 0.01 0.01 0.01 0.03 0.02 0.01 0.01 0.01 0.01 0.01 0.01 0.01 0.02 0.02 0.02 0.06 0.06 0.01 0.02 0.03 0.04 0.07 0.10 0.10 0.15 0.18 0.19 0.23 0.29 0.32 0.29 0.24 0.19 0.19 0.18 0.17 0.19 0.21 0.36 0.31 0.26 0.27 0.22 0.18 0.16 0.15 0.11 0.08 0.08 0.10 0.12 0.12 0.16 0.22 0.25 0.33 0.46
0.04 0.03 0.03 0.02 0.02 0.01 0.01 0.01 0.01 0.00 0.00 0.00 0.00 0.01 0.01 0.01 0.00 0.01 0.02 0.01 0.01 0.00 0.01 0.01 0.00 0.00 0.00 0.00 0.02 0.01 0.01 0.04 0.09 0.04 0.07 0.02 0.05 0.03 0.03 0.02 0.03 0.04 0.03 0.04 0.05 0.04 0.06 0.10 0.13 0.09 0.11 0.08 0.10 0.16 0.22 0.21 0.22 0.29 0.34 0.33 0.28 0.22 0.21 0.15 0.19 0.23 0.26 0.22 0.17 0.19 0.23 0.21 0.17 0.14 0.13 0.10 0.07 0.06 0.08 0.11 0.12 0.16 0.20 0.22 0.28
0.04 0.03 0.03 0.02 0.02 0.02 0.01 0.01 0.01 0.01 0.00 0.00 0.01 0.01 0.01 0.02 0.02 0.01 0.01 0.02 0.02 0.01 0.00 0.01 0.00 0.00 0.10 0.40 0.14 0.19 0.04 0.23 0.27 0.06 0.02 0.03 0.05 0.08 0.05 0.08 0.11 0.13 0.10 0.11 0.05 0.05 0.14 0.08 0.06 0.15 0.07 0.08 0.08 0.10 0.14 0.22 0.28 0.23 0.27 0.33 0.36 0.31 0.25 0.22 0.15 0.16 0.22 0.26 0.28 0.31 0.31 0.20 0.21 0.15 0.10 0.09 0.08 0.05 0.05 0.06 0.09 0.12 0.15 0.19 0.23
0.04 0.03 0.03 0.03 0.02 0.02 0.01 0.01 0.01 0.01 0.00 0.00 0.00 0.01 0.01 0.01 0.03 0.02 0.02 0.02 0.02 0.02 0.01 0.02 0.01 0.01 0.01 0.07 0.03 0.03 0.02 0.02 0.02 0.03 0.02 0.03 0.05 0.06 0.05 0.06 0.07 0.11 0.04 0.09 0.08 0.11 0.13 0.05 0.09 0.13 0.15 0.09 0.11 0.09 0.10 0.12 0.18 0.28 0.30 0.30 0.32 0.37 0.32 0.25 0.21 0.15 0.17 0.21 0.33 0.28 0.37 0.37 0.25 0.20 0.15 0.07 0.04 0.05 0.05 0.04 0.05 0.07 0.11 0.15 0.20
0.03 0.03 0.03 0.03 0.02 0.02 0.01 0.01 0.00 0.00 0.00 0.00 0.01 0.01 0.02 0.02 0.03 0.05 0.06 0.05 0.05 0.04 0.04 0.02 0.01 0.06 0.02 0.03 0.05 0.03 0.02 0.02 0.02 0.01 0.01 0.01 0.02 0.02 0.01 0.05 0.05 0.10 0.14 0.08 0.05 0.08 0.09 0.13 0.13 0.06 0.07 0.05 0.12 0.09 0.10 0.13 0.11 0.15 0.25 0.36 0.37 0.34 0.34 0.29 0.27 0.21 0.17 0.17 0.25 0.32 0.26 0.24 0.21 0.14 0.07 0.11 0.08 0.04 0.03 0.04 0.04 0.05 0.05 0.09 0.17
0.03 0.03 0.03 0.02 0.02 0.01 0.01 0.01 0.01 0.01 0.01 0.01 0.02 0.03 0.03 0.03 0.03 0.07 0.11 0.08 0.04 0.02 0.04 0.06 0.05 0.04 0.03 0.02 0.05 0.03 0.03 0.02 0.04 0.04 0.03 0.05 0.07 0.04 0.02 0.06 0.03 0.03 0.04 0.08 0.08 0.13 0.12 0.13 0.09 0.07 0.08 0.11 0.10 0.08 0.08 0.10 0.14 0.24 0.19 0.23 0.37 0.41 0.40 0.38 0.28 0.22 0.19 0.20 0.22 0.25 0.27 0.22 0.18 0.12 0.13 0.07 0.07 0.07 0.09 0.05 0.06 0.05 0.05 0.06 0.09
0.03 0.03 0.02 0.02 0.01 0.01 0.01 0.01 0.02 0.03 0.03 0.04 0.04 0.04 0.04 0.04 0.03 0.03 0.08 0.11 0.10 0.09 0.07 0.04 0.06 0.07 0.05 0.05 0.03 0.03 0.02 0.02 0.04 0.03 0.15 0.07 0.16 0.07 0.11 0.06 0.03 0.11 0.01 0.02 0.03 0.04 0.10 0.12 0.18 0.15 0.10 0.08 0.07 0.06 0.09 0.08 0.13 0.09 0.12 0.18 0.29 0.42 0.42 0.47 0.34 0.21 0.22 0.23 0.21 0.24 0.24 0.20 0.18 0.15 0.13 0.13 0.15 0.07 0.06 0.05 0.05 0.08 0.05 0.06 0.06
0.02 0.02 0.02 0.02 0.02 0.03 0.03 0.04 0.05 0.06 0.06 0.06 0.05 0.05 0.04 0.03 0.03 0.03 0.02 0.07 0.11 0.11 0.10 0.10 0.11 0.08 0.07 0.04 0.05 0.04 0.11 0.02 0.06 0.17 0.09 0.07 0.08 0.07 0.03 0.04 0.05 0.04 0.13 0.01 0.04 0.06 0.02 0.03 0.04 0.09 0.12 0.14 0.14 0.13 0.10 0.08 0.08 0.08 0.13 0.12 0.18 0.22 0.27 0.39 0.44 0.35 0.22 0.19 0.16 0.20 0.25 0.27 0.23 0.21 0.13 0.08 0.15 0.15 0.07 0.03 0.06 0.05 0.03 0.07 0.05
0.02 0.02 0.03 0.04 0.05 0.06 0.06 0.07 0.07 0.07 0.06 0.05 0.05 0.04 0.03 0.03 0.02 0.02 0.01 0.01 0.03 0.08 0.16 0.11 0.12 0.12 0.14 0.11 0.06 0.02 0.06 0.03 0.05 0.02 0.04 0.02 0.02 0.08 0.15 0.17 0.11 0.02 0.01 0.01 0.00 0.01 0.08 0.08 0.02 0.02 0.03 0.05 0.11 0.17 0.16 0.13 0.12 0.11 0.10 0.11 0.14 0.19 0.22 0.29 0.34 0.37 0.29 0.21 0.14 0.15 0.20 0.25 0.30 0.30 0.26 0.19 0.12 0.09 0.11 0.06 0.04 0.05 0.05 0.04 0.03
0.03 0.04 0.05 0.06 0.07 0.08 0.08 0.09 0.08 0.07 0.06 0.05 0.04 0.03 0.03 0.03 0.02 0.01 0.02 0.02 0.02 0.03 0.06 0.09 0.08 0.12 0.11 0.11 0.11 0.07 0.03 0.03 0.04 0.06 0.03 0.05 0.02 0.01 0.01 0.01 0.10 0.05 0.27 0.24 0.05 0.02 0.01 0.01 0.00 0.00 0.03 0.01 0.02 0.04 0.09 0.18 0.17 0.15 0.15 0.15 0.17 0.17 0.17 0.19 0.25 0.29 0.31 0.29 0.20 0.17 0.15 0.16 0.22 0.29 0.26 0.17 0.14 0.10 0.06 0.05 0.04 0.04 0.09 0.06 0.03
0.05 0.07 0.08 0.08 0.10 0.10 0.10 0.10 0.09 0.08 0.06 0.05 0.04 0.04 0.03 0.02 0.02 0.01 0.01 0.04 0.03 0.05 0.03 0.04 0.06 0.07 0.07 0.07 0.09 0.11 0.11 0.10 0.07 0.07 0.15 0.05 0.08 0.04 0.03 0.02 0.01 0.07 0.13 0.03 0.02 0.05 0.09 0.04 0.09 0.06 0.01 0.01 0.01 0.01 0.01 0.03 0.07 0.13 0.20 0.20 0.21 0.20 0.19 0.20 0.23 0.24 0.25 0.27 0.27 0.19 0.15 0.11 0.12 0.16 0.20 0.20 0.16 0.11 0.07 0.05 0.03 0.02 0.04 0.08 0.09
0.09 0.11 0.12 0.12 0.13 0.13 0.12 0.11 0.10 0.08 0.06 0.05 0.04 0.03 0.02 0.01 0.01 0.01 0.02 0.01 0.04 0.03 0.03 0.03 0.03 0.04 0.06 0.06 0.07 0.07 0.08 0.09 0.11 0.12 0.12 0.13 0.08 0.15 0.09 0.04 0.06 0.25 0.02 0.06 0.12 0.08 0.06 0.09 0.04 0.04 0.03 0.02 0.02 0.02 0.02 0.01 0.02 0.04 0.09 0.16 0.20 0.21 0.22 0.25 0.26 0.26 0.27 0.25 0.25 0.22 0.18 0.14 0.11 0.10 0.12 0.16 0.22 0.20 0.12 0.10 0.05 0.02 0.03 0.03 0.08
0.13 0.14 0.15 0.16 0.16 0.15 0.13 0.11 0.10 0.07 0.06 0.04 0.03 0.03 0.02 0.01 0.01 0.01 0.01 0.02 0.03 0.02 0.02 0.02 0.03 0.03 0.04 0.05 0.05 0.06 0.07 0.08 0.09 0.10 0.10 0.10 0.11 0.10 0.10 0.06 0.14 0.05 0.10 0.08 0.29 0.22 0.03 0.05 0.06 0.05 0.04 0.05 0.04 0.04 0.03 0.03 0.03 0.02 0.03 0.05 0.08 0.13 0.16 0.19 0.23 0.24 0.24 0.25 0.25 0.25 0.24 0.23 0.17 0.10 0.09 0.09 0.15 0.20 0.23 0.17 0.11 0.05 0.02 0.03 0.02
0.18 0.19 0.19 0.18 0.16 0.14 0.12 0.11 0.09 0.07 0.04 0.03 0.02 0.02 0.02 0.07 0.06 0.01 0.01 0.02 0.03 0.02 0.01 0.01 0.02 0.02 0.02 0.02 0.02 0.03 0.03 0.04 0.06 0.10 0.10 0.12 0.12 0.11 0.08 0.07 0.07 0.04 0.11 0.03 0.25 0.06 0.11 0.14 0.11 0.11 0.06 0.06 0.06 0.07 0.08 0.07 0.07 0.08 0.06 0.03 0.03 0.05 0.09 0.14 0.18 0.20 0.24 0.26 0.28 0.28 0.24 0.21 0.21 0.16 0.10 0.10 0.10 0.15 0.16 0.14 0.14 0.15 0.07 0.04 0.02
0.20 0.20 0.18 0.16 0.13 0.12 0.11 0.09 0.06 0.05 0.03 0.02 0.02 0.02 0.03 0.04 0.01 0.01 0.02 0.03 0.02 0.01 0.01 0.01 0.02 0.02 0.02 0.02 0.02 0.03 0.03 0.04 0.05 0.05 0.06 0.06 0.07 0.11 0.09 0.11 0.10 0.05 0.05 0.05 0.03 0.04 0.10 0.04 0.08 0.05 0.05 0.20 0.14 0.16 0.09 0.10 0.11 0.13 0.14 0.12 0.08 0.04 0.04 0.07 0.11 0.13 0.16 0.20 0.24 0.27 0.28 0.25 0.18 0.16 0.15 0.13 0.11 0.12 0.12 0.11 0.11 0.19 0.16 0.10 0.05
0.21 0.18 0.16 0.14 0.12 0.10 0.08 0.06 0.04 0.03 0.02 0.03 0.03 0.02 0.01 0.01 0.01 0.02 0.03 0.01 0.01 0.01 0.01 0.02 0.02 0.02 0.03 0.02 0.02 0.03 0.06 0.09 0.06 0.06 0.04 0.06 0.06 0.06 0.04 0.07 0.03 0.03 0.04 0.03 0.04 0.04 0.11 0.08 0.07 0.06 0.06 0.07 0.06 0.06 0.07 0.13 0.11 0.10 0.12 0.15 0.16 0.12 0.08 0.07 0.06 0.09 0.10 0.12 0.17 0.24 0.29 0.28 0.21 0.15 0.14 0.16 0.16 0.15 0.15 0.14 0.15 0.15 0.17 0.17 0.12
0.18 0.16 0.14 0.12 0.10 0.08 0.05 0.03 0.02 0.01 0.02 0.03 0.02 0.01 0.00 0.01 0.01 0.02 0.02 0.02 0.02 0.02 0.02 0.02 0.05 0.03 0.02 0.03 0.06 0.07 0.07 0.05 0.03 0.15 0.12 0.05 0.03 0.06 0.03 0.04 0.06 0.03 0.03 0.04 0.04 0.04 0.04 0.05 0.07 0.06 0.13 0.05 0.04 0.04 0.05 0.07 0.05 0.05 0.05 0.06 0.07 0.09 0.15 0.14 0.10 0.09 0.09 0.09 0.12 0.17 0.25 0.28 0.24 0.21 0.18 0.15 0.17 0.19 0.19 0.19 0.18 0.19 0.16 0.20 0.17
0.16 0.14 0.11 0.09 0.06 0.03 0.02 0.01 0.01 0.02 0.03 0.03 0.01 0.01 0.01 0.01 0.02 0.02 0.02 0.02 0.02 0.02 0.02 0.03 0.02 0.03 0.04 0.06 0.05 0.03 0.03 0.09 0.11 0.15 0.07 0.10 0.08 0.05 0.03 0.05 0.03 0.04 0.04 0.05 0.07 0.05 0.05 0.05 0.04 0.04 0.04 0.04 0.04 0.04 0.04 0.04 0.04 0.04 0.04 0.04 0.03 0.03 0.05 0.11 0.13 0.11 0.09 0.09 0.12 0.14 0.15 0.20 0.21 0.22 0.21 0.18 0.17 0.20 0.23 0.22 0.21 0.20 0.20 0.20 0.21
0.14 0.11 0.07 0.04 0.02 0.01 0.00 0.01 0.01 0.03 0.03 0.01 0.01 0.01 0.01 0.02 0.03 0.02 0.02 0.01 0.02 0.02 0.03 0.06 0.04 0.05 0.04 0.03 0.03 0.09 0.12 0.12 0.07 0.03 0.07 0.06 0.05 0.04 0.04 0.04 0.05 0.04 0.05 0.06 0.08 0.06 0.06 0.06 0.05 0.05 0.04 0.03 0.03 0.03 0.03 0.03 0.04 0.04 0.04 0.04 0.03 0.03 0.03 0.03 0.04 0.06 0.10 0.12 0.13 0.14 0.13 0.14 0.14 0.17 0.20 0.21 0.21 0.21 0.21 0.23 0.24 0.25 0.23 0.21 0.25
0.07 0.03 0.02 0.01 0.01 0.01 0.01 0.01 0.03 0.03 0.01 0.01 0.01 0.01 0.03 0.03 0.02 0.02 0.01 0.02 0.03 0.06 0.03 0.02 0.03 0.03 0.04 0.05 0.07 0.20 0.08 0.09 0.07 0.03 0.05 0.09 0.05 0.04 0.04 0.05 0.06 0.07 0.09 0.08 0.09 0.07 0.07 0.06 0.06 0.05 0.04 0.03 0.03 0.03 0.03 0.03 0.03 0.03 0.03 0.03 0.03 0.03 0.03 0.03 0.02 0.02 0.03 0.05 0.11 0.13 0.12 0.10 0.11 0.18 0.21 0.19 0.20 0.21 0.22 0.23 0.22 0.23 0.29 0.26 0.25
0.02 0.01 0.01 0.01 0.01 0.01 0.02 0.03 0.03 0.01 0.01 0.01 0.01 0.02 0.04 0.03 0.02 0.01 0.02 0.03 0.03 0.05 0.04 0.03 0.02 0.02 0.04 0.07 0.06 0.13 0.03 0.11 0.04 0.05 0.07 0.05 0.04 0.04 0.05 0.09 0.08 0.09 0.09 0.09 0.10 0.08 0.08 0.07 0.07 0.08 0.05 0.05 0.04 0.10 0.04 0.02 0.03 0.03 0.03 0.03 0.04 0.03 0.03 0.03 0.02 0.02 0.02 0.02 0.03 0.06 0.08 0.08 0.09 0.19 0.20 0.22 0.20 0.22 0.24 0.27 0.26 0.24 0.23 0.23 0.21
0.01 0.01 0.01 0.01 0.01 0.01 0.03 0.02 0.02 0.01 0.01 0.01 0.01 0.02 0.03 0.02 0.02 0.03 0.04 0.03 0.03 0.03 0.02 0.02 0.03 0.05 0.04 0.07 0.09 0.05 0.08 0.06 0.03 0.04 0.06 0.05 0.04 0.07 0.09 0.16 0.14 0.13 0.11 0.09 0.09 0.07 0.07 0.06 0.07 0.06 0.15 0.09 0.05 0.05 0.04 0.04 0.04 0.04 0.04 0.03 0.03 0.04 0.04 0.04 0.03 0.03 0.02 0.02 0.03 0.04 0.04 0.04 0.06 0.14 0.17 0.18 0.17 0.21 0.22 0.31 0.24 0.24 0.22 0.18 0.15
0.01 0.01 0.01 0.01 0.01 0.02 0.03 0.02 0.02 0.01 0.01 0.01 0.02 0.03 0.03 0.03 0.04 0.04 0.03 0.02 0.02 0.02 0.02 0.02 0.03 0.03 0.03 0.02 0.03 0.03 0.04 0.05 0.04 0.04 0.05 0.07 0.10 0.12 0.14 0.14 0.13 0.12 0.12 0.10 0.07 0.06 0.05 0.05 0.05 0.06 0.06 0.07 0.09 0.07 0.11 0.12 0.05 0.07 0.06 0.05 0.04 0.04 0.04 0.05 0.05 0.04 0.05 0.04 0.04 0.04 0.04 0.03 0.04 0.07 0.10 0.21 0.18 0.17 0.22 0.23 0.23 0.21 0.20 0.18 0.15
0.01 0.01 0.01 0.02 0.03 0.04 0.03 0.02 0.02 0.02 0.02 0.03 0.04 0.04 0.06 0.05 0.03 0.03 0.02 0.02 0.02 0.02 0.02 0.02 0.03 0.03 0.05 0.03 0.05 0.05 0.07 0.04 0.04 0.05 0.08 0.10 0.12 0.14 0.14 0.14 0.13 0.11 0.09 0.07 0.06 0.06 0.05 0.05 0.06 0.07 0.06 0.06 0.06 0.06 0.07 0.07 0.06 0.06 0.06 0.07 0.07 0.07 0.11 0.09 0.08 0.06 0.06 0.06 0.05 0.05 0.04 0.05 0.06 0.08 0.08 0.07 0.09 0.13 0.16 0.17 0.16 0.17 0.20 0.21 0.21
0.01 0.02 0.03 0.04 0.04 0.02 0.03 0.03 0.03 0.02 0.03 0.03 0.05 0.06 0.05 0.04 0.03 0.02 0.02 0.02 0.02 0.03 0.03 0.03 0.03 0.03 0.05 0.16 0.16 0.10 0.07 0.04 0.05 0.08 0.11 0.14 0.15 0.15 0.15 0.12 0.09 0.08 0.07 0.06 0.06 0.07 0.07 0.08 0.08 0.07 0.07 0.08 0.07 0.07 0.07 0.07 0.06 0.06 0.07 0.06 0.06 0.06 0.06 0.07 0.07 0.07 0.07 0.09 0.09 0.08 0.07 0.07 0.08 0.10 0.09 0.08 0.08 0.08 0.10 0.15 0.15 0.16 0.15 0.18 0.24
0.02 0.04 0.05 0.04 0.03 0.03 0.04 0.03 0.03 0.03 0.03 0.04 0.05 0.04 0.03 0.03 0.03 0.02 0.02 0.02 0.03 0.03 0.10 0.04 0.04 0.06 0.21 0.09 0.09 0.04 0.05 0.07 0.10 0.13 0.15 0.15 0.15 0.13 0.10 0.09 0.07 0.08 0.08 0.08 0.08 0.08 0.08 0.07 0.07 0.07 0.06 0.06 0.06 0.06 0.05 0.06 0.06 0.07 0.08 0.06 0.06 0.06 0.05 0.06 0.06 0.06 0.07 0.07 0.08 0.09 0.10 0.16 0.11 0.10 0.12 0.09 0.10 0.12 0.14 0.13 0.11 0.12 0.14 0.18 0.25
0.03 0.05 0.05 0.04 0.03 0.04 0.05 0.05 0.04 0.04 0.06 0.06 0.04 0.03 0.03 0.03 0.02 0.02 0.02 0.04 0.02 0.07 0.06 0.13 0.09 0.09 0.08 0.08 0.05 0.06 0.08 0.12 0.14 0.15 0.16 0.15 0.12 0.11 0.10 0.10 0.10 0.09 0.09 0.09 0.09 0.08 0.07 0.06 0.06 0.06 0.06 0.06 0.06 0.07 0.07 0.06 0.07 0.06 0.07 0.07 0.06 0.06 0.06 0.05 0.05 0.05 0.06 0.06 0.07 0.08 0.10 0.10 0.10 0.12 0.13 0.12 0.12 0.14 0.12 0.15 0.13 0.15 0.17 0.19 0.22
0.06 0.05 0.09 0.04 0.04 0.05 0.05 0.06 0.05 0.06 0.07 0.05 0.04 0.03 0.03 0.03 0.02 0.02 0.10 0.16 0.06 0.07 0.07 0.07 0.08 0.06 0.06 0.06 0.08 0.10 0.13 0.15 0.16 0.16 0.14 0.13 0.13 0.14 0.14 0.13 0.12 0.12 0.11 0.10 0.09 0.09 0.09 0.09 0.08 0.08 0.09 0.11 0.12 0.11 0.09 0.09 0.07 0.06 0.06 0.07 0.08 0.08 0.08 0.08 0.07 0.06 0.06 0.06 0.06 0.08 0.09 0.10 0.10 0.11 0.12 0.15 0.13 0.15 0.22 0.17 0.13 0.13 0.18 0.22 0.25
0.07 0.05 0.06 0.04 0.05 0.05 0.06 0.05 0.07 0.09 0.07 0.06 0.06 0.06 0.05 0.04 0.02 0.06 0.04 0.03 0.06 0.04 0.05 0.08 0.06 0.07 0.09 0.11 0.14 0.17 0.18 0.16 0.13 0.12 0.12 0.14 0.16 0.15 0.16 0.16 0.16 0.14 0.14 0.13 0.13 0.13 0.14 0.14 0.12 0.12 0.11 0.12 0.11 0.10 0.09 0.09 0.11 0.13 0.17 0.22 0.24 0.20 0.16 0.15 0.14 0.12 0.10 0.08 0.07 0.06 0.07 0.08 0.09 0.11 0.12 0.17 0.19 0.22 0.19 0.17 0.22 0.19 0.18 0.24 0.23
0.06 0.07 0.06 0.05 0.06 0.06 0.06 0.09 0.10 0.08 0.07 0.09 0.06 0.04 0.03 0.03 0.03 0.07 0.09 0.03 0.04 0.06 0.06 0.07 0.09 0.11 0.14 0.17 0.19 0.17 0.13 0.11 0.11 0.12 0.14 0.15 0.16 0.16 0.17 0.17 0.16 0.16 0.15 0.15 0.16 0.19 0.19 0.19 0.19 0.19 0.17 0.15 0.14 0.13 0.12 0.15 0.26 0.44 0.42 0.44 0.41 0.30 0.24 0.22 0.21 0.20 0.17 0.14 0.11 0.09 0.08 0.08 0.10 0.12 0.14 0.19 0.21 0.22 0.27 0.34 0.27 0.24 0.30 0.32 0.30
0.09 0.08 0.06 0.06 0.07 0.07 0.09 0.10 0.09 0.07 0.08 0.05 0.04 0.03 0.03 0.03 0.03 0.09 0.04 0.05 0.08 0.08 0.08 0.11 0.15 0.18 0.18 0.17 0.13 0.11 0.10 0.11 0.13 0.16 0.16 0.15 0.15 0.16 0.16 0.16 0.16 0.15 0.15 0.16 0.18 0.18 0.18 0.19 0.20 0.21 0.21 0.19 0.17 0.16 0.20 0.28 0.38 0.51 0.67 0.66 0.59 0.50 0.41 0.36 0.31 0.28 0.24 0.20 0.17 0.14 0.12 0.11 0.12 0.13 0.13 0.15 0.17 0.22 0.25 0.30 0.40 0.51 0.55 0.69 0.68
0.10 0.08 0.08 0.09 0.09 0.08 0.10 0.08 0.08 0.06 0.14 0.07 0.03 0.04 0.04 0.04 0.04 0.06 0.05 0.07 0.08 0.10 0.14 0.18 0.18 0.16 0.13 0.11 0.10 0.11 0.12 0.14 0.15 0.15 0.15 0.15 0.15 0.15 0.15 0.15 0.16 0.16 0.17 0.19 0.20 0.21 0.22 0.22 0.24 0.25 0.22 0.22 0.20 0.19 0.24 0.31 0.44 0.67 0.81 1.00 0.92 0.70 0.57 0.47 0.40 0.32 0.28 0.25 0.22 0.21 0.19 0.17 0.14 0.21 0.17 0.17 0.18 0.19 0.21 0.26 0.31 0.37 0.49 0.79 0.80
0.11 0.10 0.11 0.09 0.08 0.10 0.10 0.09 0.08 0.09 0.11 0.03 0.03 0.04 0.04 0.05 0.04 0.06 0.07 0.09 0.12 0.15 0.16 0.15 0.13 0.11 0.11 0.11 0.11 0.12 0.15 0.15 0.14 0.14 0.15 0.16 0.16 0.16 0.18 0.19 0.20 0.21 0.22 0.23 0.21 0.24 0.25 0.27 0.27 0.28 0.28 0.24 0.22 0.20 0.25 0.37 0.56 0.77 0.95 1.14 0.93 0.77 0.60 0.49 0.40 0.34 0.30 0.29 0.28 0.27 0.25 0.21 0.18 0.16 0.18 0.19 0.19 0.18 0.17 0.20 0.24 0.27 0.31 0.33 0.52
0.14 0.12 0.11 0.09 0.12 0.11 0.09 0.08 0.11 0.09 0.10 0.08 0.04 0.04 0.06 0.05 0.07 0.09 0.10 0.13 0.16 0.16 0.14 0.12 0.12 0.12 0.11 0.11 0.13 0.15 0.15 0.14 0.13 0.14 0.16 0.17 0.18 0.20 0.20 0.23 0.25 0.27 0.28 0.29 0.32 0.31 0.29 0.30 0.31 0.33 0.35 0.31 0.27 0.25 0.32 0.47 0.68 0.95 1.20 1.10 0.91 0.91 0.73 0.49 0.36 0.29 0.24 0.22 0.22 0.24 0.24 0.22 0.20 0.21 0.19 0.18 0.19 0.20 0.21 0.22 0.24 0.24 0.23 0.22 0.21
0.14 0.12 0.10 0.11 0.13 0.11 0.11 0.11 0.06 0.12 0.09 0.06 0.05 0.07 0.08 0.10 0.11 0.14 0.16 0.17 0.14 0.12 0.12 0.13 0.14 0.12 0.12 0.13 0.15 0.16 0.16 0.15 0.15 0.16 0.18 0.19 0.19 0.21 0.23 0.23 0.26 0.26 0.29 0.30 0.30 0.36 0.33 0.31 0.28 0.31 0.37 0.35 0.29 0.33 0.45 0.57 0.83 1.05 1.26 1.30 0.85 0.74 0.59 0.46 0.37 0.31 0.28 0.26 0.32 0.42 0.29 0.29 0.27 0.26 0.22 0.35 0.32 0.29 0.33 0.37 0.37 0.33 0.29 0.23 0.19
0.08 0.07 0.09 0.11 0.10 0.09 0.09 0.07 0.12 0.09 0.06 0.06 0.06 0.08 0.11 0.13 0.14 0.15 0.14 0.12 0.11 0.12 0.14 0.15 0.14 0.12 0.14 0.15 0.16 0.18 0.18 0.18 0.19 0.20 0.22 0.22 0.25 0.26 0.26 0.26 0.32 0.31 0.32 0.30 0.25 0.24 0.21 0.21 0.23 0.23 0.26 0.22 0.19 0.22 0.34 0.58 0.94 1.21 1.53 1.10 0.88 0.80 0.65 0.50 0.38 0.40 0.33 0.29 0.29 0.30 0.31 0.28 0.29 0.28 0.27 0.37 0.52 0.51 0.48 0.44 0.42 0.40 0.35 0.33 0.25
0.05 0.07 0.10 0.12 0.09 0.08 0.06 0.07 0.08 0.06 0.06 0.06 0.07 0.10 0.12 0.13 0.12 0.11 0.11 0.11 0.14 0.15 0.15 0.14 0.14 0.15 0.17 0.17 0.18 0.19 0.21 0.22 0.22 0.24 0.25 0.26 0.27 0.28 0.29 0.29 0.33 0.31 0.27 0.21 0.19 0.18 0.18 0.21 0.20 0.18 0.17 0.18 0.15 0.15 0.24 0.37 0.65 0.94 1.35 1.09 0.90 0.79 0.63 0.48 0.40 0.37 0.34 0.32 0.30 0.27 0.31 0.32 0.32 0.27 0.29 0.43 0.66 0.71 0.76 0.57 0.44 0.39 0.36 0.34 0.26
0.06 0.12 0.13 0.10 0.10 0.07 0.05 0.07 0.07 0.09 0.08 0.08 0.09 0.11 0.11 0.12 0.11 0.11 0.13 0.17 0.18 0.16 0.15 0.15 0.17 0.18 0.18 0.17 0.18 0.20 0.22 0.24 0.25 0.24 0.27 0.30 0.32 0.33 0.29 0.27 0.27 0.26 0.23 0.19 0.19 0.19 0.17 0.15 0.16 0.17 0.16 0.22 0.24 0.22 0.22 0.31 0.53 0.73 0.97 0.87 0.86 0.80 0.67 0.54 0.48 0.44 0.41 0.39 0.33 0.31 0.34 0.38 0.34 0.31 0.43 0.61 0.72 0.82 0.89 0.62 0.43 0.42 0.39 0.31 0.21
0.11 0.12 0.11 0.08 0.08 0.08 0.12 0.13 0.12 0.12 0.10 0.10 0.10 0.10 0.11 0.12 0.12 0.15 0.19 0.20 0.18 0.16 0.15 0.16 0.17 0.17 0.17 0.17 0.17 0.21 0.23 0.25 0.26 0.27 0.26 0.29 0.29 0.27 0.25 0.25 0.22 0.22 0.22 0.20 0.18 0.18 0.17 0.15 0.16 0.18 0.18 0.26 0.27 0.22 0.26 0.38 0.58 0.70 0.95 0.81 0.78 0.77 0.70 0.54 0.50 0.51 0.50 0.43 0.37 0.33 0.33 0.37 0.53 0.63 0.68 0.80 0.93 1.24 0.98 0.83 0.63 0.58 0.51 0.33 0.19
0.12 0.11 0.08 0.10 0.09 0.15 0.18 0.11 0.11 0.12 0.11 0.10 0.10 0.12 0.13 0.14 0.18 0.23 0.22 0.19 0.17 0.16 0.17 0.18 0.17 0.16 0.16 0.16 0.18 0.22 0.25 0.26 0.27 0.29 0.29 0.27 0.25 0.25 0.23 0.23 0.22 0.21 0.21 0.20 0.17 0.17 0.18 0.18 0.21 0.22 0.30 0.33 0.37 0.40 0.31 0.34 0.40 0.51 0.71 0.89 0.70 0.59 0.51 0.53 0.54 0.54 0.49 0.44 0.38 0.33 0.33 0.29 0.35 0.51 0.68 0.89 0.99 1.15 1.21 0.96 0.92 0.72 0.44 0.23 0.28
0.10 0.11 0.11 0.09 0.14 0.17 0.11 0.11 0.13 0.13 0.12 0.11 0.12 0.15 0.17 0.22 0.28 0.25 0.20 0.18 0.18 0.19 0.19 0.18 0.16 0.16 0.16 0.18 0.20 0.23 0.26 0.28 0.25 0.24 0.26 0.25 0.23 0.23 0.23 0.23 0.24 0.26 0.25 0.22 0.20 0.21 0.22 0.23 0.30 0.27 0.30 0.27 0.25 0.27 0.26 0.23 0.27 0.40 0.59 0.88 0.67 0.53 0.48 0.53 0.59 0.53 0.47 0.43 0.39 0.36 0.32 0.28 0.34 0.51 0.59 0.83 1.11 1.06 1.28 1.12 0.88 0.94 1.04 0.93 0.70
0.09 0.08 0.08 0.15 0.21 0.14 0.13 0.15 0.14 0.13 0.12 0.12 0.15 0.22 0.27 0.31 0.27 0.23 0.20 0.21 0.21 0.20 0.19 0.17 0.17 0.18 0.19 0.21 0.24 0.27 0.29 0.27 0.25 0.24 0.27 0.26 0.24 0.22 0.22 0.24 0.27 0.27 0.26 0.23 0.22 0.25 0.26 0.29 0.24 0.20 0.21 0.23 0.24 0.25 0.23 0.24 0.23 0.30 0.47 0.74 0.76 0.66 0.66 0.59 0.63 0.59 0.48 0.39 0.36 0.39 0.36 0.36 0.45 0.62 0.87 0.99 1.17 1.26 1.08 1.05 1.51 1.21 1.14 1.01 0.94
0.09 0.10 0.11 0.17 0.14 0.14 0.14 0.15 0.13 0.13 0.14 0.16 0.22 0.32 0.35 0.29 0.25 0.22 0.23 0.24 0.23 0.21 0.19 0.19 0.19 0.19 0.21 0.23 0.25 0.26 0.25 0.26 0.28 0.28 0.27 0.26 0.24 0.23 0.22 0.22 0.25 0.26 0.26 0.25 0.21 0.24 0.25 0.24 0.23 0.24 0.25 0.24 0.24 0.26 0.23 0.23 0.24 0.27 0.39 0.61 0.73 0.72 0.70 0.59 0.51 0.46 0.42 0.39 0.37 0.35 0.36 0.45 0.69 0.83 1.04 1.09 1.13 1.14 1.03 1.21 1.37 1.40 1.37 1.34 1.06
0.10 0.12 0.11 0.12 0.14 0.13 0.14 0.14 0.12 0.14 0.16 0.21 0.29 0.36 0.32 0.30 0.27 0.25 0.28 0.27 0.24 0.22 0.20 0.19 0.19 0.20 0.21 0.22 0.22 0.23 0.24 0.24 0.23 0.24 0.26 0.24 0.23 0.23 0.23 0.20 0.22 0.24 0.25 0.26 0.24 0.23 0.25 0.27 0.29 0.32 0.30 0.25 0.25 0.26 0.24 0.24 0.25 0.29 0.38 0.52 0.57 0.65 0.57 0.51 0.53 0.45 0.40 0.38 0.38 0.49 0.58 0.68 0.83 0.97 1.08 1.06 1.12 0.95 1.01 1.00 0.89 0.98 1.08 1.01 1.06
0.12 0.12 0.13 0.13 0.12 0.13 0.15 0.16 0.16 0.16 0.19 0.26 0.30 0.30 0.35 0.33 0.28 0.28 0.27 0.25 0.22 0.21 0.20 0.19 0.19 0.19 0.19 0.19 0.20 0.19 0.21 0.22 0.20 0.22 0.23 0.22 0.22 0.21 0.22 0.21 0.23 0.25 0.24 0.27 0.26 0.25 0.29 0.32 0.36 0.34 0.34 0.28 0.27 0.26 0.24 0.25 0.30 0.32 0.32 0.37 0.38 0.38 0.46 0.45 0.47 0.39 0.33 0.32 0.39 0.51 0.59 0.57 0.60 0.64 0.67 0.83 0.84 0.56 0.51 0.65 0.71 0.74 0.78 0.85 0.83
0.15 0.14 0.13 0.14 0.15 0.18 0.20 0.20 0.20 0.20 0.24 0.29 0.27 0.28 0.29 0.28 0.28 0.27 0.24 0.22 0.22 0.21 0.20 0.19 0.18 0.19 0.19 0.19 0.20 0.20 0.21 0.20 0.19 0.18 0.19 0.19 0.18 0.19 0.20 0.22 0.25 0.28 0.29 0.28 0.28 0.33 0.39 0.41 0.44 0.35 0.32 0.27 0.26 0.26 0.25 0.28 0.30 0.33 0.32 0.33 0.33 0.31 0.34 0.38 0.41 0.40 0.39 0.34 0.34 0.42 0.47 0.49 0.48 0.51 0.59 0.59 0.50 0.54 0.56 0.60 0.57 0.60 0.61 0.63 0.61
0.15 0.13 0.14 0.16 0.18 0.23 0.25 0.24 0.24 0.25 0.27 0.26 0.26 0.26 0.25 0.26 0.27 0.25 0.24 0.23 0.22 0.21 0.20 0.18 0.17 0.18 0.18 0.19 0.20 0.20 0.19 0.18 0.18 0.19 0.19 0.17 0.15 0.15 0.19 0.23 0.28 0.38 0.45 0.43 0.46 0.53 0.56 0.58 0.59 0.46 0.36 0.27 0.27 0.31 0.32 0.38 0.38 0.44 0.45 0.43 0.36 0.37 0.36 0.34 0.36 0.36 0.34 0.32 0.33 0.39 0.49 0.54 0.56 0.60 0.50 0.47 0.55 0.63 0.61 0.54 0.46 0.40 0.39 0.44 0.55
0.15 0.16 0.18 0.21 0.24 0.27 0.26 0.26 0.29 0.27 0.24 0.25 0.25 0.24 0.25 0.27 0.26 0.24 0.24 0.25 0.24 0.20 0.18 0.16 0.16 0.18 0.18 0.18 0.20 0.18 0.17 0.16 0.16 0.17 0.20 0.21 0.18 0.19 0.23 0.24 0.21 0.29 0.49 0.81 1.06 0.84 0.83 0.74 0.60 0.57 0.51 0.43 0.37 0.44 0.45 0.39 0.44 0.49 0.54 0.54 0.50 0.46 0.46 0.40 0.34 0.38 0.38 0.38 0.39 0.44 0.43 0.42 0.46 0.49 0.45 0.45 0.46 0.46 0.47 0.51 0.50 0.43 0.40 0.41 0.44
0.16 0.19 0.20 0.21 0.23 0.25 0.26 0.28 0.28 0.24 0.25 0.26 0.25 0.24 0.25 0.25 0.24 0.24 0.25 0.26 0.25 0.23 0.21 0.18 0.17 0.18 0.17 0.19 0.18 0.16 0.15 0.15 0.16 0.16 0.16 0.17 0.19 0.23 0.27 0.35 0.33 0.27 0.34 0.57 0.89 1.04 0.98 0.88 0.80 0.61 0.52 0.66 0.67 0.55 0.52 0.67 0.78 0.70 0.63 0.61 0.63 0.71 0.64 0.51 0.47 0.46 0.43 0.41 0.42 0.42 0.40 0.39 0.43 0.46 0.49 0.50 0.52 0.50 0.46 0.46 0.50 0.47 0.43 0.40 0.39
0.22 0.24 0.23 0.24 0.23 0.23 0.26 0.26 0.25 0.25 0.27 0.24 0.24 0.23 0.24 0.23 0.24 0.24 0.25 0.26 0.26 0.28 0.24 0.20 0.19 0.19 0.18 0.20 0.19 0.17 0.15 0.16 0.17 0.17 0.16 0.17 0.15 0.16 0.22 0.29 0.30 0.29 0.34 0.57 0.72 0.82 0.88 0.81 0.97 0.98 0.62 0.50 0.50 0.50 0.62 0.80 0.88 0.89 0.64 0.65 0.63 0.54 0.47 0.43 0.40 0.48 0.46 0.45 0.46 0.45 0.44 0.40 0.43 0.44 0.43 0.45 0.47 0.47 0.48 0.48 0.50 0.52 0.52 0.52 0.50